KUIPER-00104

导读 | 豆包AI

KUIPER-00104是美国亚马逊柯伊伯计划的低轨卫星互联网卫星,于2025年8月11日发射。作为项目大规模部署阶段的卫星,它运行在近地轨道,采用Ka频段,具备高带宽、低延迟特性,将与其他数千颗卫星一同,为全球尤其是偏远地区提供可负担的高速互联网接入,还可与亚马逊AWS云服务整合,服务企业、物联网及国防等领域。

Basic Information
目录编号:
65142
目录名称:
KUIPER-00104
国际标识:
2025-171L
轨道中心:
EARTH
卫星名称:
KUIPER-00104
卫星全名:
KUIPER-00104
卫星状态:
在轨 (已飞行261 天)
发射日期:
2025-08-11 UTC
国别 :
美国 (US)
星等 :
--
Orbit Information
数据来源 国际轨道数据 AOE轨道数据
星历时间 2026-04-29T00:23:54+0800
8小时前
查看轨道信息
2026-04-27T11:00:00+0800
1天前
查看轨道信息
半长轴 7007.703km 7007.69km
偏心率 0.00006 0.0001383
轨道倾角 51.901° 51.903°
近地点辐角 90.448° 82.282°
升交点赤经 296.970° 303.861°
平近点角 269.655° 250.837°
近地点 629.145km 628.583km
远地点 629.987km 630.523km
周期 97.302分钟 97.302分钟
每日圈数 14.799236 14.799277
Detailed Information
使用方式:
暂无
2D Orbit Map
3D Orbit Map
Orbit Altitude Analysis Chart
Orbit Inclination Analysis Chart
Orbit Comprehensive Analysis Chart
View Comprehensive Chart